Tracking 20083 objects as of 12-Dec-2019
HD Live streaming from Space Station
objects crossing your sky now

FENGYUN 1C DEB

Track FENGYUN 1C DEB now!
10-day predictions


NORAD ID: 31823
Int'l Code: 1999-025CHM
Perigee: 731.3 km
Apogee: 815.6 km
Inclination: 99.5 °
Period: 100.2 minutes
Semi major axis: 7144 km
RCS: 0.0046 m2 (small)
Launch date: May 10, 1999
Source: People's Republic of China (PRC)
Launch site: Taiyaun Space Center, China (TSC)

Note: This is SATELLITE DEBRIS
aabbcc
Your satellite tracking list
Your tracking list is empty




NASA's NSSDC Master Catalog

Two Line Element Set (TLE):
1 31823U 99025CHM 19346.20020883  .00000354  00000-0  13283-3 0  9990
2 31823  99.5376 133.0008 0058974 154.5683 205.8423 14.37645171655816
Source of the keplerian elements: AFSPC